RH
76 68 70 74 74 85 92 93 91 86 77 74 73 72 71 64 64 67 66 66 59 56
80 76 76 76 79 87 86 88 91 85 81 75 76 70 68 62 65 63 67 67 66 57
81 79 78 80 81 84 84 84 92 88 84 78 76 71 68 63 63 64 64 59 62 60
79 81 80 81 80 83 84 84 91 89 86 81 76 70 70 67 63 64 63 62 62 60
84 84 87 82 80 83 82 83 84 86 84 81 75 74 71 68 62 65 66 63 62 60
89 87 88 86 85 83 83 82 79 81 84 82 82 77 72 68 66 67 64 60 62 61
91 89 88 85 86 85 77 79 76 80 82 82 80 75 73 69 71 69 63 67 68 58
88 89 88 88 86 82 78 75 72 77 81 80 82 77 76 70 73 71 69 73 64 67
90 92 92 92 87 82 77 74 76 75 77 83 77 91 91 80 72 69 67 71 69 66
90 92 94 92 92 82 80 78 79 78 76 79 77 94 93 91 70 72 72 70 68 66
90 92 95 94 92 84 80 78 78 81 78 77 75 96 96 95 73 75 74 73 70 68
92 92 95 96 91 84 81 81 76 75 78 79 78 96 97 91 75 76 76 75 72 71
90 92 95 94 94 86 81 78 74 73 76 82 77 96 97 87 75 79 77 74 74 88
92 93 93 94 92 92 89 82 80 70 70 71 73 80 95 94 73 72 72 69 70 66
Wind_Speed
20 14 15 17 14 12 12 12 15 15 15 17 15 13 13 13 12 13 12 15 11 7
19 18 16 18 16 13 15 12 16 17 16 18 15 16 16 11 14 13 13 13 14 10
19 17 16 14 17 17 16 17 16 17 17 17 16 15 16 13 15 15 12 11 15 13
17 15 15 15 17 16 17 18 18 18 17 18 18 17 16 15 15 17 15 14 14 15
16 13 14 15 17 16 17 18 19 19 18 17 18 16 17 17 14 16 15 16 15 15
16 17 16 17 14 15 15 16 18 19 18 17 16 17 17 17 16 15 15 16 16 15
18 19 18 17 16 15 16 16 17 18 17 17 17 17 17 16 15 15 15 15 15 16
17 15 15 16 15 15 16 16 18 16 15 15 15 13 17 16 16 16 15 14 14 13
13 14 16 16 15 15 16 16 16 17 17 16 12 16 18 17 15 16 16 14 14 12
14 14 14 14 15 15 16 15 17 16 17 17 17 18 19 18 14 14 13 13 13 12
12 12 11 13 13 14 14 16 16 16 17 15 14 19 20 19 14 12 14 14 15 15
13 15 14 14 15 14 13 13 15 15 16 17 14 18 20 19 14 12 14 12 13 14
15 16 16 16 16 13 14 14 12 13 14 15 15 18 20 19 10 12 9 11 12 12
14 17 18 16 14 15 13 11 12 13 13 15 15 16 19 20 12 10 10 10 10 10
Wind_Direction
211 203 199 189 185 186 180 183 176 181 183 184 180 178 184 183 187 190 199 196 197 200
200 200 198 193 186 185 181 184 179 180 182 184 179 184 185 188 191 194 201 204 205 208
201 199 196 186 192 184 181 181 182 178 183 184 182 185 189 190 194 196 200 207 207 214
200 198 196 193 195 188 177 180 182 178 181 184 184 188 191 193 191 201 202 208 211 215
191 189 197 203 197 181 184 184 184 179 182 186 187 187 191 194 193 199 203 204 211 215
190 193 196 194 189 184 180 188 189 180 183 185 184 187 195 197 195 201 204 206 206 207
192 194 198 196 181 180 185 187 195 183 183 185 186 190 192 195 197 201 206 206 202 203
196 195 197 197 190 180 185 192 196 183 186 184 187 189 188 192 195 200 203 201 200 201
184 185 194 193 189 178 186 190 191 194 185 183 193 182 180 183 193 199 200 196 201 199
186 186 193 202 189 184 184 186 194 197 187 191 195 173 178 179 190 192 196 196 195 196
185 192 190 194 190 190 184 188 194 195 193 190 193 169 175 177 190 196 198 198 199 200
191 188 192 190 190 191 187 189 198 199 186 190 185 173 174 172 190 200 202 198 199 202
188 194 193 191 187 188 191 190 193 194 190 189 182 175 172 180 187 196 195 198 205 201
197 196 194 189 187 181 178 180 188 193 188 192 185 176 178 186 189 194 194 199 202 202